| time (UTC) | temp F | wind direction | speed MPH | gust MPH | rain 1hr in | rain 24hr in | rain mn in | humidity % | barometer mb |
| 20260906163016 | 82 | 18 | 0.0 | 2.0 | 0.00 | 0.20 | 0.00 | 82 | 1012.5 |
| 20260906161533 | 81 | 54 | 0.0 | 3.0 | 0.00 | 0.20 | 0.00 | 81 | 1012.6 |
| 20260906160057 | 81 | 75 | 0.0 | 3.0 | 0.00 | 0.20 | 0.00 | 82 | 1012.7 |
| 20260906154520 | 83 | 21 | 0.0 | 3.0 | 0.00 | 0.20 | 0.00 | 82 | 1012.8 |
| 20260906153042 | 81 | 98 | 0.0 | 2.0 | 0.00 | 0.20 | 0.00 | 84 | 1012.8 |
| 20260906151548 | 81 | 207 | 0.0 | 3.0 | 0.00 | 0.20 | 0.00 | 86 | 1012.7 |
| 20260906150023 | 81 | 235 | 0.0 | 3.0 | 0.00 | 0.20 | 0.00 | 88 | 1012.8 |
| 20260906144530 | 79 | 15 | 0.0 | 5.0 | 0.00 | 0.20 | 0.00 | 88 | 1012.8 |
| 20260906143055 | 79 | 10 | 0.0 | 1.0 | 0.00 | 0.20 | 0.00 | 88 | 1012.7 |
| 20260906141512 | 80 | 125 | 0.0 | 1.0 | 0.00 | 0.20 | 0.00 | 87 | 1012.5 |
| 20260906140038 | 78 | 336 | 0.0 | 3.0 | 0.00 | 0.20 | 0.00 | 90 | 1012.5 |
| 20260906134552 | 77 | 346 | 0.0 | 2.0 | 0.00 | 0.20 | 0.00 | 91 | 1012.2 |
| 20260906133010 | 76 | 285 | 0.0 | 1.0 | 0.00 | 0.20 | 0.00 | 93 | 1012.1 |
| 20260906131528 | 76 | 151 | 0.0 | 4.0 | 0.00 | 0.20 | 0.00 | 94 | 1012.1 |
| 20260906124520 | 74 | 12 | 0.0 | 1.0 | 0.00 | 0.20 | 0.00 | 96 | 1012.3 |
| 20260906123037 | 74 | 68 | 0.0 | 2.0 | 0.00 | 0.20 | 0.00 | 97 | 1012.0 |
| 20260906121551 | 73 | 34 | 0.0 | 5.0 | 0.00 | 0.20 | 0.00 | 98 | 1011.9 |
| 20260906120009 | 73 | 24 | 0.0 | 1.0 | 0.00 | 0.20 | 0.00 | 99 | 1011.8 |
| 20260906114536 | 73 | 9 | 0.0 | 3.0 | 0.00 | 0.20 | 0.00 | 99 | 1011.5 |
| 20260906113050 | 72 | 26 | 0.0 | 3.0 | 0.00 | 0.20 | 0.00 | 99 | 1011.4 |
| 20260906111516 | 72 | 266 | 0.0 | 2.0 | 0.00 | 0.20 | 0.00 | 99 | 1011.3 |
| 20260906110033 | 72 | 28 | 0.0 | 4.0 | 0.00 | 0.20 | 0.00 | 99 | 1011.1 |
| 20260906104604 | 72 | 320 | 0.0 | 2.0 | 0.00 | 0.20 | 0.00 | 100 | 1011.1 |
| 20260906103016 | 72 | 3 | 0.0 | 5.0 | 0.00 | 0.20 | 0.00 | 100 | 1011.0 |
| 20260906101544 | 72 | 137 | 0.0 | 2.0 | 0.00 | 0.20 | 0.00 | 100 | 1010.9 |
| 20260906100009 | 73 | 59 | 0.0 | 0.0 | 0.00 | 0.20 | 0.00 | 100 | 1010.5 |
| 20260906094532 | 73 | 155 | 0.0 | 0.0 | 0.00 | 0.20 | 0.00 | 100 | 1010.2 |
| 20260906093101 | 73 | 154 | 0.0 | 0.0 | 0.00 | 0.20 | 0.00 | 100 | 1010.1 |
| 20260906093008 | 73 | 154 | 0.0 | 0.0 | 0.00 | 0.20 | 0.00 | 100 | 1010.0 |
| 20260906091522 | 73 | 131 | 0.0 | 0.0 | 0.00 | 0.20 | 0.00 | 100 | 1010.1 |
| 20260906090041 | 73 | 141 | 0.0 | 0.0 | 0.00 | 0.20 | 0.00 | 100 | 1010.2 |
| 20260906084609 | 73 | 38 | 0.0 | 1.0 | 0.00 | 0.20 | 0.00 | 100 | 1010.0 |
| 20260906083024 | 73 | 110 | 0.0 | 2.0 | 0.00 | 0.20 | 0.00 | 100 | 1009.9 |
| 20260906081553 | 73 | 319 | 1.0 | 4.0 | 0.00 | 0.20 | 0.00 | 100 | 1009.7 |
| 20260906080014 | 73 | 37 | 0.0 | 2.0 | 0.00 | 0.20 | 0.00 | 100 | 1009.5 |
| 20260906074532 | 73 | 27 | 0.0 | 0.0 | 0.00 | 0.20 | 0.00 | 100 | 1009.2 |
| 20260906073103 | 73 | 356 | 0.0 | 2.0 | 0.00 | 0.20 | 0.00 | 100 | 1009.2 |
| 20260906071511 | 73 | 18 | 0.0 | 0.0 | 0.00 | 0.20 | 0.00 | 100 | 1009.3 |
| 20260906070034 | 73 | 329 | 0.0 | 1.0 | 0.00 | 0.20 | 0.00 | 100 | 1009.4 |
| 20260906064541 | 73 | 262 | 0.0 | 0.0 | 0.00 | 0.20 | 0.00 | 100 | 1009.5 |
| 20260906063010 | 73 | 261 | 0.0 | 0.0 | 0.00 | 0.20 | 0.00 | 100 | 1009.5 |
| 20260906061530 | 73 | 261 | 0.0 | 0.0 | 0.00 | 0.20 | 0.00 | 100 | 1009.5 |
| 20260906060056 | 72 | 261 | 0.0 | 0.0 | 0.00 | 0.20 | 0.00 | 100 | 1009.8 |
| 20260906054524 | 72 | 262 | 0.0 | 0.0 | 0.00 | 0.20 | 0.00 | 100 | 1009.8 |
| 20260906053044 | 72 | 262 | 0.0 | 0.0 | 0.00 | 0.20 | 0.00 | 100 | 1009.9 |
| 20260906051505 | 72 | 261 | 0.0 | 0.0 | 0.00 | 0.20 | 0.00 | 100 | 1010.3 |
| 20260906050033 | 72 | 261 | 0.0 | 0.0 | 0.00 | 0.20 | 0.00 | 100 | 1010.4 |
| 20260906044555 | 72 | 261 | 0.0 | 0.0 | 0.00 | 0.20 | 0.00 | 100 | 1010.5 |
| 20260906043021 | 72 | 261 | 0.0 | 0.0 | 0.00 | 0.20 | 0.00 | 99 | 1010.5 |
| 20260906041539 | 72 | 261 | 0.0 | 0.0 | 0.00 | 0.20 | 0.00 | 99 | 1010.4 |
| 20260906040115 | 72 | 261 | 0.0 | 0.0 | 0.00 | 0.20 | 0.00 | 99 | 1010.2 |
| 20260906034528 | 73 | 261 | 0.0 | 0.0 | 0.00 | 0.20 | 0.20 | 99 | 1010.6 |
| 20260906033047 | 73 | 260 | 0.0 | 0.0 | 0.00 | 0.20 | 0.20 | 99 | 1010.6 |
| 20260906031512 | 73 | 261 | 0.0 | 0.0 | 0.00 | 0.20 | 0.20 | 99 | 1010.7 |
| 20260906030033 | 73 | 261 | 0.0 | 0.0 | 0.00 | 0.21 | 0.20 | 99 | 1010.6 |
| 20260906024503 | 73 | 261 | 0.0 | 0.0 | 0.00 | 0.21 | 0.20 | 99 | 1010.7 |
| 20260906023022 | 73 | 357 | 0.0 | 0.0 | 0.00 | 0.21 | 0.20 | 99 | 1010.8 |
| 20260906021545 | 73 | 357 | 0.0 | 0.0 | 0.00 | 0.21 | 0.20 | 99 | 1010.6 |
| 20260906020006 | 73 | 357 | 0.0 | 0.0 | 0.00 | 0.21 | 0.20 | 98 | 1010.5 |
| 20260906014544 | 73 | 19 | 0.0 | 0.0 | 0.00 | 0.21 | 0.20 | 99 | 1010.5 |
| 20260906013059 | 73 | 32 | 0.0 | 3.0 | 0.00 | 0.21 | 0.20 | 99 | 1010.3 |
| 20260906013007 | 73 | 32 | 0.0 | 3.0 | 0.00 | 0.21 | 0.20 | 99 | 1010.3 |
| 20260906011521 | 73 | 14 | 0.0 | 0.0 | 0.00 | 0.21 | 0.20 | 99 | 1010.3 |
| 20260906010049 | 73 | 334 | 0.0 | 0.0 | 0.00 | 0.21 | 0.20 | 99 | 1010.1 |
| 20260906004503 | 73 | 334 | 0.0 | 0.0 | 0.00 | 0.21 | 0.20 | 99 | 1010.2 |
| 20260906003029 | 73 | 334 | 0.0 | 0.0 | 0.00 | 0.21 | 0.20 | 99 | 1010.1 |
| 20260906001549 | 73 | 334 | 0.0 | 0.0 | 0.00 | 0.21 | 0.20 | 99 | 1009.9 |
| 20260906000017 | 73 | 334 | 0.0 | 0.0 | 0.00 | 0.21 | 0.20 | 99 | 1009.5 |
| 20260905234548 | 73 | 334 | 0.0 | 0.0 | 0.00 | 0.21 | 0.20 | 98 | 1008.9 |
| 20260905233007 | 74 | 355 | 0.0 | 0.0 | 0.00 | 0.21 | 0.20 | 98 | 1008.6 |
| 20260905231527 | 74 | 8 | 0.0 | 1.0 | 0.00 | 0.21 | 0.20 | 98 | 1009.0 |
| 20260905230053 | 74 | 352 | 0.0 | 0.0 | 0.00 | 0.21 | 0.20 | 98 | 1008.7 |
| 20260905224516 | 74 | 352 | 0.0 | 0.0 | 0.00 | 0.21 | 0.20 | 98 | 1008.2 |
| 20260905223043 | 74 | 300 | 0.0 | 0.0 | 0.00 | 0.21 | 0.20 | 98 | 1008.5 |
| 20260905221514 | 73 | 290 | 0.0 | 4.0 | 0.01 | 0.21 | 0.20 | 98 | 1008.4 |
| 20260905220027 | 73 | 329 | 0.0 | 1.0 | 0.01 | 0.21 | 0.20 | 98 | 1008.2 |
| 20260905214554 | 73 | 290 | 0.0 | 0.0 | 0.01 | 0.21 | 0.20 | 97 | 1008.5 |
| 20260905213019 | 73 | 186 | 0.0 | 2.0 | 0.01 | 0.21 | 0.20 | 98 | 1008.4 |
| 20260905211542 | 73 | 244 | 0.0 | 1.0 | 0.00 | 0.20 | 0.19 | 97 | 1008.0 |
| 20260905210003 | 73 | 323 | 0.0 | 1.0 | 0.19 | 0.20 | 0.19 | 97 | 1008.5 |
| 20260905204528 | 73 | 253 | 0.0 | 1.0 | 0.19 | 0.20 | 0.19 | 97 | 1007.9 |
| 20260905203051 | 73 | 121 | 0.0 | 6.0 | 0.19 | 0.20 | 0.19 | 95 | 1008.7 |
| 20260905201520 | 75 | 44 | 0.0 | 13.0 | 0.19 | 0.20 | 0.19 | 91 | 1008.7 |
| 20260905200045 | 83 | 309 | 12.0 | 28.0 | 0.00 | 0.01 | 0.00 | 74 | 1008.7 |
| 20260905194544 | 94 | 142 | 0.0 | 0.0 | 0.00 | 0.01 | 0.00 | 65 | 1007.4 |
| 20260905193006 | 96 | 147 | 0.0 | 0.0 | 0.00 | 0.01 | 0.00 | 61 | 1007.6 |
| 20260905191520 | 97 | 229 | 0.0 | 1.0 | 0.00 | 0.01 | 0.00 | 59 | 1008.0 |
| 20260905190047 | 97 | 94 | 2.0 | 5.0 | 0.00 | 0.01 | 0.00 | 58 | 1008.0 |
| 20260905184601 | 97 | 308 | 0.0 | 1.0 | 0.00 | 0.01 | 0.00 | 61 | 1008.0 |
| 20260905183023 | 96 | 331 | 1.0 | 5.0 | 0.00 | 0.01 | 0.00 | 57 | 1008.4 |
| 20260905181537 | 95 | 321 | 0.0 | 4.0 | 0.00 | 0.01 | 0.00 | 59 | 1008.6 |
| 20260905174518 | 95 | 335 | 0.0 | 4.0 | 0.00 | 0.01 | 0.00 | 60 | 1009.4 |
| 20260905173044 | 96 | 259 | 3.0 | 6.0 | 0.00 | 0.01 | 0.00 | 60 | 1009.6 |
| 20260905171604 | 95 | 297 | 1.0 | 4.0 | 0.00 | 0.01 | 0.00 | 63 | 1009.8 |
| 20260905170024 | 94 | 256 | 2.0 | 5.0 | 0.00 | 0.01 | 0.00 | 67 | 1009.9 |
| 20260905164538 | 93 | 156 | 0.0 | 6.0 | 0.00 | 0.01 | 0.00 | 68 | 1010.1 |